1487937600.78,1032,9.44,71610.8,-8.19,-31.33,-32.13,0,*61
1487937602.03,1033,9.44,71610.0,-8.19,-31.73,-32.39,0,*6C
1487937603.26,1034,9.44,71604.0,-8.17,-31.57,-32.23,0,*68
1487937604.49,1035,9.44,71632.5,-8.17,-31.17,-31.57,0,*6D
1487937605.74,1036,9.44,71614.0,-8.17,-31.73,-32.29,0,*66
1487937607.0,1037,9.44,71604.3,-8.17,-31.51,-32.07,0,*6B
1487937608.25,1038,9.44,71626.5,-8.19,-31.39,-31.79,0,*6E
1487937609.47,1039,9.44,71632.3,-8.19,-31.33,-31.67,0,*6A
1487937610.75,1040,9.44,71654.0,-8.19,-31.57,-31.73,0,*63
1487937612.0,1041,9.44,71664.8,-8.19,-31.23,-31.67,0,*64
1487937613.22,1042,9.44,71658.0,-8.17,-31.05,-31.57,0,*6E
1487937614.45,1043,9.44,71656.3,-8.17,-30.45,-30.73,0,*6D
1487937615.7,1044,9.44,71646.0,-8.19,-31.17,-31.51,0,*63
1487937616.98,1045,9.44,71648.0,-8.15,-30.55,-30.95,0,*60
1487937618.27,1046,9.44,71658.3,-8.15,-29.89,-30.39,0,*6C
1487937619.48,1047,9.44,71648.3,-8.13,-30.23,-30.67,0,*68
1487937620.69,1048,9.44,71628.8,-8.13,-29.95,-30.45,0,*62
1487937621.98,1049,9.44,71648.8,-8.07,-29.51,-30.01,0,*6E
1487937623.24,1050,9.44,71648.5,-8.11,-29.45,-29.89,0,*6C
1487937624.48,1051,9.44,71650.0,-8.07,-29.95,-30.45,0,*6F
1487937625.71,1052,9.44,71632.8,-8.07,-29.61,-29.95,0,*62
1487937626.94,1053,9.44,71640.0,-8.03,-29.07,-29.45,0,*6A
1487937628.19,1054,9.44,71656.8,-8.01,-28.75,-29.17,0,*6C
1487937629.42,1055,9.44,71650.3,-7.99,-28.85,-29.23,0,*6B
1487937630.68,1056,9.44,71674.5,-7.97,-29.13,-29.35,0,*6F
1487937631.93,1057,9.44,71696.8,-7.95,-29.29,-29.67,0,*62
1487937633.17,1058,9.44,71672.5,-7.95,-29.45,-29.83,0,*6D
1487937634.42,1059,9.44,71714.3,-7.91,-29.61,-30.05,0,*68
1487937635.69,1060,9.44,71720.3,-7.91,-29.89,-30.27,0,*64
1487937636.89,1061,9.44,71752.0,-7.93,-29.45,-29.95,0,*66
1487937638.14,1062,9.44,71736.8,-7.91,-30.45,-30.95,0,*67
1487937639.39,1063,9.44,71692.3,-7.85,-30.77,-31.29,0,*64
1487937640.65,1064,9.44,71694.3,-7.89,-30.95,-31.57,0,*6A
1487937641.92,1065,9.44,71670.8,-7.91,-30.95,-31.57,0,*62
1487937643.18,1066,9.44,71662.5,-7.93,-31.23,-31.91,0,*65
1487937644.38,1067,9.44,71640.3,-7.93,-31.79,-32.39,0,*6A
1487937645.63,1068,9.44,71580.5,-7.93,-31.39,-31.91,0,*60
1487937646.88,1069,9.44,71588.3,-7.93,-30.51,-30.89,0,*66
1487937648.13,1070,9.44,71598.5,-7.93,-30.17,-30.55,0,*6D
1487937649.37,1071,9.44,71586.8,-7.91,-29.79,-30.33,0,*6E
1487937650.6,1072,9.44,71610.5,-7.89,-29.57,-30.05,0,*6D
1487937651.89,1073,9.44,71596.3,-7.85,-29.51,-29.89,0,*6A
1487937653.19,1074,9.44,71590.8,-7.85,-29.51,-29.89,0,*6D
1487937654.45,1075,9.44,71614.0,-7.85,-29.67,-30.17,0,*66
1487937655.71,1076,9.44,71630.5,-7.85,-29.67,-30.05,0,*66
1487937656.96,1077,9.44,71600.5,-7.83,-29.67,-30.17,0,*62
1487937658.22,1078,9.44,71620.3,-7.81,-29.95,-30.39,0,*6E
1487937659.5,1079,9.44,71636.0,-7.81,-30.01,-30.51,0,*64
1487937660.73,1080,9.44,71572.5,-7.81,-30.23,-30.67,0,*67
1487937661.98,1081,9.44,71592.8,-7.81,-30.39,-31.01,0,*6C
1487937663.22,1082,9.44,71622.8,-7.79,-29.79,-30.17,0,*62
1487937664.47,1083,9.44,71604.3,-7.79,-30.01,-30.39,0,*68
1487937665.73,1084,9.44,71598.3,-7.77,-30.27,-30.61,0,*68
1487937666.99,1085,9.44,71618.0,-7.77,-30.33,-30.77,0,*6B
1487937668.25,1086,9.44,71596.5,-7.77,-31.33,-31.91,0,*60
1487937669.5,1087,9.44,71606.5,-7.77,-31.67,-32.19,0,*63
1487937670.75,1088,9.44,71618.0,-7.77,-30.17,-30.45,0,*61
1487937671.96,1089,9.44,71614.3,-7.79,-29.83,-30.23,0,*6B
1487937673.2,1090,9.44,71650.8,-7.79,-29.83,-30.17,0,*64
1487937674.43,1091,9.44,71648.8,-7.75,-30.05,-30.45,0,*68
1487937675.67,1092,9.44,71670.8,-7.75,-30.45,-30.77,0,*6E
1487937676.87,1093,9.44,71698.8,-7.75,-30.67,-31.01,0,*6F
1487937678.08,1094,9.44,71658.5,-7.75,-30.11,-30.27,0,*6C
1487937679.28,1095,9.44,71668.8,-7.75,-31.01,-31.17,0,*6F
1487937680.53,1096,9.44,71650.5,-7.75,-31.39,-31.73,0,*65
1487937681.79,1097,9.44,71628.5,-7.75,-31.23,-31.51,0,*6F
1487937683.03,1098,9.44,71608.0,-7.77,-30.83,-31.17,0,*6B
1487937684.25,1099,9.44,71604.8,-7.79,-31.91,-32.13,0,*61
1487937685.51,1100,9.44,71626.8,-7.77,-31.33,-31.51,0,*63
1487937686.76,1101,9.44,71620.5,-7.77,-32.07,-32.35,0,*67
1487937687.97,1102,9.44,71604.8,-7.79,-32.39,-32.51,0,*65
1487937689.19,1103,9.44,71612.0,-7.79,-31.45,-31.45,0,*6A
1487937690.45,1104,9.44,71638.0,-7.79,-30.73,-30.89,0,*68
1487937691.68,1105,9.44,71624.3,-7.79,-30.55,-30.67,0,*6D
1487937692.93,1106,9.44,71644.5,-7.79,-30.39,-30.51,0,*61
1487937694.17,1107,9.44,71642.8,-7.79,-30.39,-30.39,0,*6E
1487937695.38,1108,9.44,71624.5,-7.79,-30.33,-30.23,0,*60
1487937696.6,1109,9.44,71636.0,-7.77,-30.45,-30.33,0,*6F
1487937697.81,1110,9.44,71634.3,-7.79,-30.33,-30.33,0,*68
1487937699.07,1111,9.44,71630.5,-7.75,-30.17,-30.17,0,*65
1487937700.33,1112,9.44,71630.5,-7.75,-30.51,-30.61,0,*65
1487937701.55,1113,9.44,71622.3,-7.77,-30.45,-30.45,0,*65
1487937702.8,1114,9.44,71628.0,-7.77,-30.05,-29.95,0,*63
1487937704.05,1115,9.44,71626.3,-7.77,-29.73,-29.79,0,*69
1487937705.3,1116,9.44,71614.8,-7.73,-29.67,-29.73,0,*61
1487937706.53,1117,9.44,71600.3,-7.75,-30.51,-30.45,0,*66
1487937707.81,1118,9.44,71648.8,-7.73,-30.73,-30.61,0,*69
1487937709.1,1119,9.44,71626.3,-7.73,-30.77,-30.61,0,*6C
1487937710.36,1120,9.44,71634.0,-7.73,-31.05,-30.77,0,*65
1487937711.61,1121,9.44,71618.3,-7.73,-31.05,-30.95,0,*68
1487937712.9,1122,9.44,71608.8,-7.73,-30.89,-30.77,0,*62
1487937714.14,1123,9.44,71626.5,-7.75,-30.67,-30.61,0,*62
1487937715.42,1124,9.44,71614.8,-7.73,-30.77,-30.77,0,*65
1487937716.62,1125,9.44,71614.0,-7.75,-31.01,-31.01,0,*62
1487937717.87,1126,9.44,71592.5,-7.75,-30.83,-30.77,0,*6A
1487937719.08,1127,9.44,71600.3,-7.75,-31.01,-30.83,0,*6B
1487937720.33,1128,9.44,71582.0,-7.77,-31.85,-31.67,0,*61
1487937721.56,1129,9.44,71594.8,-7.79,-32.39,-32.29,0,*63
1487937722.79,1130,9.44,71590.8,-7.79,-31.57,-31.29,0,*63
1487937724.03,1131,9.44,71608.3,-7.79,-31.57,-31.29,0,*62
1487937725.29,1132,9.44,71612.5,-7.81,-31.23,-31.05,0,*6B
1487937726.53,1133,9.44,71624.3,-7.83,-32.13,-31.95,0,*61
1487937727.79,1134,9.44,71596.5,-7.83,-31.51,-31.23,0,*6E
1487937729.06,1135,9.44,71606.5,-7.81,-31.45,-31.23,0,*68
1487937730.33,1136,9.44,71582.5,-7.83,-30.77,-30.61,0,*6E
1487937731.57,1137,9.44,71582.3,-7.83,-31.05,-30.89,0,*6D
1487937732.8,1138,9.44,71564.5,-7.83,-31.67,-31.51,0,*62
1487937734.04,1139,9.44,71598.8,-7.83,-31.79,-31.61,0,*6F
1487937735.27,1140,9.44,71592.5,-7.89,-31.33,-31.11,0,*62
1487937736.53,1141,9.44,71560.3,-7.85,-31.61,-31.29,0,*63
1487937737.79,1142,9.44,71538.5,-7.89,-31.51,-31.11,0,*64
1487937739.02,1143,9.44,71562.0,-7.85,-31.45,-31.05,0,*69
1487937740.27,1144,9.44,71586.5,-7.89,-31.51,-31.11,0,*62
1487937741.48,1145,9.44,71590.0,-7.89,-31.33,-31.01,0,*66
1487937742.72,1146,9.44,71586.8,-7.89,-31.11,-30.83,0,*6E
1487937743.97,1147,9.44,71602.0,-7.91,-31.17,-30.95,0,*67
1487937745.2,1148,9.44,71600.5,-7.91,-31.33,-31.01,0,*62
1487937746.46,1149,9.44,71582.5,-7.91,-31.39,-31.17,0,*6E
1487937747.71,1150,9.44,71596.0,-7.91,-31.85,-31.67,0,*66
1487937748.96,1151,9.44,71580.5,-7.93,-31.91,-31.39,0,*6B
1487937750.19,1152,9.44,71592.3,-7.93,-31.39,-31.05,0,*65
1487937751.39,1153,9.44,71528.3,-7.93,-31.01,-30.67,0,*6A
1487937752.62,1154,9.44,71538.0,-7.93,-30.77,-30.27,0,*69
1487937753.81,1155,9.44,71490.3,-7.93,-30.33,-29.95,0,*69
1487937755.03,1156,9.44,71566.8,-7.93,-30.55,-30.11,0,*6E
1487937756.25,1157,9.44,71602.8,-7.89,-29.61,-29.17,0,*65
1487937757.49,1158,9.44,71554.0,-7.89,-29.39,-28.85,0,*6D
1487937758.74,1159,9.44,71584.3,-7.85,-30.05,-29.67,0,*6A
1487937760.0,1160,9.44,71648.8,-7.85,-30.17,-29.67,0,*63
1487937761.21,1161,9.44,71634.5,-7.89,-29.57,-29.07,0,*64
1487937762.45,1162,9.44,71660.0,-7.83,-29.39,-28.97,0,*6D
1487937763.68,1163,9.44,71632.3,-7.83,-29.83,-29.39,0,*68
1487937764.97,1164,9.44,71638.0,-7.81,-29.51,-28.91,0,*61
1487937766.21,1165,9.44,71634.0,-7.79,-29.51,-28.97,0,*61
1487937767.46,1166,9.44,71630.3,-7.81,-29.67,-29.29,0,*64
1487937768.75,1167,9.44,71638.3,-7.81,-29.35,-28.91,0,*60
1487937770.0,1168,9.44,71634.0,-7.77,-29.13,-28.69,0,*65
1487937771.24,1169,9.44,71620.3,-7.79,-29.51,-28.97,0,*6D
1487937772.47,1170,9.44,71596.3,-7.75,-29.57,-29.01,0,*61
1487937773.74,1171,9.5,71612.5,-7.73,-29.39,-28.85,0,*63
1487937774.96,1172,9.44,71600.8,-7.75,-29.57,-29.13,0,*60
1487937776.19,1173,9.44,71610.8,-7.73,-29.67,-29.07,0,*61
1487937777.45,1174,9.44,71622.5,-7.73,-29.51,-28.97,0,*6B
1487937778.68,1175,9.44,71622.3,-7.75,-29.45,-28.91,0,*6F
1487937779.93,1176,9.44,71630.3,-7.73,-29.23,-28.79,0,*6C
1487937781.13,1177,9.44,71616.0,-7.71,-29.67,-29.23,0,*61
1487937782.35,1178,9.44,71552.5,-7.71,-29.73,-29.23,0,*6B
1487937783.6,1179,9.44,71564.5,-7.69,-29.45,-28.79,0,*68
1487937784.88,1180,9.44,71600.3,-7.69,-28.91,-28.47,0,*6B
1487937786.13,1181,9.44,71628.8,-7.69,-29.79,-29.29,0,*64
1487937787.42,1182,9.44,71646.3,-7.69,-29.51,-28.91,0,*6F
1487937788.66,1183,9.44,71664.8,-7.69,-29.67,-29.29,0,*69
1487937789.92,1184,9.44,71686.8,-7.69,-29.45,-28.91,0,*6C
1487937791.2,1185,9.44,71646.3,-7.69,-29.51,-29.13,0,*63
1487937792.46,1186,9.44,71598.8,-7.67,-30.73,-30.17,0,*6A
1487937793.66,1187,9.44,71622.0,-7.67,-29.61,-28.97,0,*61
1487937794.9,1188,9.5,71622.0,-7.67,-28.91,-28.31,0,*6C
1487937796.18,1189,9.44,71594.3,-7.65,-29.13,-28.59,0,*6A
1487937797.41,1190,9.5,71602.3,-7.65,-28.97,-28.69,0,*6C
1487937798.68,1191,9.44,71572.8,-7.65,-29.13,-28.59,0,*63
1487937799.96,1192,9.44,71668.8,-7.61,-29.39,-28.75,0,*62
1487937801.22,1193,9.44,71704.0,-7.59,-29.51,-28.91,0,*6C
1487937802.45,1194,9.44,71690.8,-7.61,-29.57,-28.97,0,*60
1487937803.68,1195,9.44,71650.3,-7.59,-29.07,-28.43,0,*66
1487937804.93,1196,9.44,71584.3,-7.59,-29.51,-28.79,0,*6F
1487937806.17,1197,9.44,71568.8,-7.59,-29.51,-28.69,0,*6F
1487937807.37,1198,9.44,71618.0,-7.59,-30.45,-29.83,0,*68
1487937808.63,1199,9.44,71614.3,-7.61,-30.01,-29.13,0,*6B
1487937809.9,1200,9.5,71626.3,-7.59,-29.51,-28.63,0,*68
1487937811.14,1201,9.5,71636.8,-7.59,-28.91,-27.89,0,*6F
1487937812.4,1202,9.44,71616.0,-7.59,-29.51,-28.47,0,*6C
1487937813.65,1203,9.44,71632.5,-7.59,-29.89,-28.79,0,*65
1487937814.93,1204,9.44,71650.0,-7.57,-31.11,-29.73,0,*6F
1487937816.17,1205,9.44,71606.0,-7.59,-31.45,-29.89,0,*64
1487937817.39,1206,9.5,71634.3,-7.59,-30.77,-29.07,0,*61
1487937818.64,1207,9.44,71624.5,-7.61,-30.95,-29.07,0,*67
1487937819.85,1208,9.44,71618.0,-7.61,-31.01,-29.07,0,*64
1487937821.1,1209,9.5,71626.5,-7.65,-31.23,-28.97,0,*69
1487937822.35,1210,9.44,71632.3,-7.65,-31.33,-28.91,0,*66
1487937823.6,1211,9.44,71640.8,-7.67,-31.39,-28.91,0,*6F
1487937824.86,1212,9.5,71642.5,-7.67,-31.23,-28.75,0,*6D
1487937826.06,1213,9.5,71662.0,-7.71,-31.01,-28.31,0,*6B
1487937827.29,1214,9.44,71646.0,-7.71,-30.89,-27.89,0,*61
1487937828.48,1215,9.44,71654.5,-7.71,-30.45,-27.51,0,*65
1487937829.71,1216,9.44,71658.5,-7.71,-31.11,-27.89,0,*63
1487937830.96,1217,9.44,71608.3,-7.71,-30.77,-27.45,0,*63
1487937832.22,1218,9.5,71660.0,-7.73,-31.11,-27.55,0,*6E
1487937833.45,1219,9.44,71668.8,-7.75,-29.95,-26.71,0,*6B
1487937834.71,1220,9.5,71618.8,-7.75,-29.39,-26.33,0,*61
1487937836.0,1221,9.44,71560.0,-7.73,-28.63,-26.33,0,*68
1487937837.26,1222,9.44,71594.5,-7.75,-28.25,-26.17,0,*69
1487937838.51,1223,9.5,71600.5,-7.75,-27.83,-26.17,0,*6B
1487937839.79,1224,9.5,71604.5,-7.73,-27.45,-26.17,0,*60
1487937841.02,1225,9.5,71614.0,-7.75,-27.89,-26.71,0,*67
1487937842.25,1226,9.44,71630.0,-7.73,-27.89,-27.03,0,*66
1487937843.5,1227,9.5,71646.3,-7.73,-27.61,-26.49,0,*6E
1487937844.73,1228,9.5,71638.5,-7.69,-27.55,-26.23,0,*61
1487937845.96,1229,9.44,71620.0,-7.71,-28.53,-27.19,0,*68
1487937847.24,1230,9.44,71636.3,-7.69,-28.43,-26.81,0,*68
1487937848.46,1231,9.44,71638.3,-7.69,-28.97,-27.07,0,*6F
1487937849.7,1232,9.5,71670.0,-7.67,-28.75,-26.39,0,*62
1487937850.93,1233,9.44,71694.5,-7.67,-28.31,-25.71,0,*6C
1487937852.17,1234,9.5,71678.5,-7.65,-28.53,-25.61,0,*6C
1487937853.42,1235,9.44,71672.0,-7.65,-28.75,-25.39,0,*64
1487937854.67,1236,9.44,71620.3,-7.65,-28.69,-24.87,0,*6E
1487937855.92,1237,9.44,71642.0,-7.65,-28.43,-24.35,0,*6E
1487937857.19,1238,9.44,71632.0,-7.61,-28.75,-24.41,0,*63
1487937858.46,1239,9.5,71632.5,-7.61,-28.25,-23.65,0,*66
1487937859.71,1240,9.5,71650.5,-7.59,-27.99,-23.69,0,*67
1487937860.93,1241,9.5,71648.5,-7.59,-27.83,-23.89,0,*63
1487937862.16,1242,9.5,71658.0,-7.59,-26.81,-23.59,0,*6E
1487937863.42,1243,9.5,71664.5,-7.57,-25.97,-23.59,0,*65
1487937864.64,1244,9.44,71694.3,-7.57,-25.61,-24.47,0,*63
1487937865.9,1245,9.5,71688.3,-7.55,-26.07,-25.81,0,*68
1487937867.19,1246,9.44,71644.3,-7.55,-25.97,-26.29,0,*60
1487937868.45,1247,9.5,71632.5,-7.55,-27.29,-27.99,0,*6C
1487937869.74,1248,9.5,71638.8,-7.57,-28.05,-28.63,0,*6A
1487937870.97,1249,9.5,71630.3,-7.57,-28.37,-28.53,0,*69
1487937872.22,1250,9.5,71642.0,-7.57,-28.15,-28.05,0,*62
1487937873.5,1251,9.44,71662.5,-7.55,-29.29,-29.17,0,*6D
1487937874.72,1252,9.5,71662.3,-7.57,-30.45,-29.95,0,*64
1487937875.97,1253,9.5,71654.0,-7.57,-30.45,-29.89,0,*68
1487937877.2,1254,9.44,71622.0,-7.61,-30.67,-29.95,0,*67
1487937878.46,1255,9.5,71578.0,-7.59,-29.89,-29.01,0,*68
1487937879.71,1256,9.44,71554.3,-7.61,-29.89,-28.97,0,*6E
1487937880.98,1257,9.5,71578.3,-7.61,-30.01,-28.91,0,*61
1487937882.24,1258,9.5,71532.5,-7.61,-29.23,-28.25,0,*69
1487937883.47,1259,9.5,71650.3,-7.59,-29.07,-28.05,0,*67
1487937884.7,1260,9.5,71630.3,-7.59,-29.17,-28.15,0,*6D
1487937885.97,1261,9.5,71610.8,-7.59,-31.61,-30.73,0,*6D
1487937887.24,1262,9.5,71598.3,-7.61,-33.27,-32.29,0,*68
1487937888.47,1263,9.5,71570.3,-7.67,-33.21,-32.29,0,*69
1487937889.72,1264,9.5,71626.8,-7.69,-32.45,-31.05,0,*6E
1487937890.97,1265,9.5,71604.8,-7.71,-31.51,-30.55,0,*64
1487937892.26,1266,9.5,71638.5,-7.73,-31.85,-30.89,0,*6D
1487937893.48,1267,9.5,71636.3,-7.71,-31.05,-29.89,0,*6E
1487937894.69,1268,9.5,71626.3,-7.75,-30.67,-29.61,0,*66
1487937895.95,1269,9.5,71550.5,-7.75,-31.11,-30.05,0,*6D
1487937897.17,1270,9.5,71556.0,-7.75,-30.77,-29.61,0,*6E
1487937898.43,1271,9.5,71592.3,-7.75,-29.89,-28.75,0,*62
1487937899.66,1272,9.5,71634.0,-7.75,-29.95,-29.01,0,*6E
1487937900.88,1273,9.5,71576.3,-7.75,-30.61,-29.61,0,*6A
1487937902.09,1274,9.5,71542.8,-7.75,-30.67,-29.79,0,*62
1487937903.32,1275,9.44,71554.3,-7.75,-30.67,-29.73,0,*69
1487937904.54,1276,9.5,71520.8,-7.79,-30.95,-29.95,0,*63
1487937905.78,1277,9.5,71556.0,-7.79,-31.17,-30.17,0,*6B
1487937907.01,1278,9.5,71536.8,-7.79,-30.73,-29.67,0,*68
1487937908.22,1279,9.5,71558.5,-7.79,-30.83,-29.83,0,*6C
1487937909.45,1280,9.5,71580.5,-7.79,-30.89,-29.95,0,*67
1487937910.65,1281,9.5,71614.3,-7.79,-31.01,-30.11,0,*63
1487937911.91,1282,9.5,71596.5,-7.83,-30.89,-29.89,0,*6D
1487937913.16,1283,9.5,71572.8,-7.81,-30.55,-29.79,0,*60
1487937914.42,1284,9.5,71586.3,-7.83,-31.23,-30.39,0,*69
1487937915.66,1285,9.5,71608.8,-7.83,-30.89,-29.83,0,*60
1487937916.87,1286,9.5,71622.8,-7.83,-30.45,-29.57,0,*6A
1487937918.09,1287,9.5,71592.8,-7.89,-30.51,-29.57,0,*64
1487937919.31,1288,9.5,71580.0,-7.85,-30.23,-29.23,0,*61
1487937920.54,1289,9.5,71588.8,-7.85,-30.27,-29.23,0,*64
1487937921.77,1290,9.5,71540.0,-7.89,-30.27,-29.39,0,*6B
1487937923.0,1291,9.5,71496.8,-7.85,-28.97,-28.15,0,*6B
1487937924.26,1292,9.5,71522.3,-7.85,-29.17,-28.31,0,*67
1487937925.5,1293,9.5,71524.5,-7.85,-28.97,-28.15,0,*69
1487937926.76,1294,9.5,71506.0,-7.85,-29.35,-28.53,0,*65
1487937928.0,1295,9.5,71606.3,-7.83,-29.29,-28.53,0,*6F
1487937929.25,1296,9.5,71618.8,-7.81,-28.47,-27.93,0,*64
1487937930.51,1297,9.5,71600.5,-7.81,-28.59,-27.89,0,*61
1487937931.74,1298,9.5,71628.3,-7.81,-28.31,-27.77,0,*61
1487937933.0,1299,9.5,71626.5,-7.79,-28.59,-28.09,0,*6F
1487937934.25,1300,9.5,71632.0,-7.77,-29.29,-28.85,0,*62
1487937935.48,1301,9.5,71618.0,-7.77,-29.57,-29.07,0,*61
1487937936.73,1302,9.5,71570.8,-7.77,-29.13,-28.69,0,*6B
1487937937.98,1303,9.5,71570.5,-7.77,-28.69,-28.25,0,*6E
1487937939.21,1304,9.5,71588.3,-7.77,-28.69,-28.37,0,*6A
1487937940.47,1305,9.5,71564.5,-7.77,-28.53,-28.09,0,*6F
1487937941.68,1306,9.5,71618.8,-7.71,-28.37,-28.15,0,*65
1487937942.91,1307,9.5,71652.8,-7.75,-28.85,-28.59,0,*61
1487937944.17,1308,9.5,71702.5,-7.73,-28.05,-27.77,0,*63
1487937945.4,1309,9.5,71714.3,-7.73,-28.69,-28.53,0,*61
1487937946.65,1310,9.5,71642.3,-7.73,-29.39,-29.23,0,*6B
1487937947.94,1311,9.5,71634.0,-7.73,-29.51,-29.35,0,*63
1487937949.17,1312,9.5,71554.3,-7.73,-28.97,-28.85,0,*61
1487937950.42,1313,9.5,71518.5,-7.73,-31.05,-30.95,0,*6B
1487937951.69,1314,9.5,71618.0,-7.75,-29.89,-29.89,0,*62
1487937952.97,1315,9.5,71630.3,-7.73,-29.35,-29.35,0,*65
1487937954.24,1316,9.5,71640.3,-7.73,-29.51,-29.57,0,*60
1487937955.5,1317,9.5,71670.0,-7.73,-29.51,-29.57,0,*61
1487937956.74,1318,9.5,71716.3,-7.75,-29.39,-29.57,0,*66
1487937957.94,1319,9.5,71634.8,-7.75,-29.61,-29.79,0,*66
1487937959.19,1320,9.5,71580.5,-7.73,-29.23,-29.39,0,*68
1487937960.43,1321,9.5,71514.3,-7.75,-29.61,-29.89,0,*62
1487937961.69,1322,9.5,71498.5,-7.73,-29.83,-30.01,0,*63
1487937962.93,1323,9.5,71548.0,-7.75,-29.95,-30.17,0,*64
1487937964.14,1324,9.5,71582.5,-7.75,-30.11,-30.27,0,*64
1487937965.36,1325,9.5,71650.0,-7.75,-30.33,-30.51,0,*64
1487937966.57,1326,9.5,71642.5,-7.75,-30.11,-30.33,0,*63
1487937967.83,1327,9.5,71652.5,-7.77,-29.89,-29.95,0,*6D
1487937969.06,1328,9.5,71644.0,-7.77,-29.79,-29.95,0,*6D
1487937970.28,1329,9.5,71680.5,-7.77,-29.57,-29.79,0,*62
1487937971.51,1330,9.5,71670.0,-7.75,-28.09,-28.37,0,*69
1487937972.72,1331,9.5,71526.8,-7.75,-28.69,-28.85,0,*67
1487937973.96,1332,9.5,71546.5,-7.73,-29.67,-29.83,0,*6A
1487937975.22,1333,9.5,71522.5,-7.75,-30.01,-30.17,0,*60
1487937976.44,1334,9.5,71524.3,-7.75,-30.05,-30.27,0,*60
1487937977.67,1335,9.5,71528.0,-7.75,-29.73,-29.95,0,*69
1487937978.9,1336,9.5,71570.3,-7.75,-29.57,-29.73,0,*64
1487937980.14,1337,9.5,71584.0,-7.75,-29.39,-29.57,0,*6B
1487937981.39,1338,9.5,71612.5,-7.73,-29.23,-29.39,0,*61
1487937982.65,1339,9.5,71640.3,-7.71,-29.01,-29.17,0,*6E
1487937983.88,1340,9.5,71630.5,-7.73,-29.57,-29.83,0,*6C
1487937985.1,1341,9.5,71652.0,-7.71,-28.69,-28.79,0,*67
1487937986.31,1342,9.5,71662.0,-7.71,-28.85,-28.97,0,*66
1487937987.54,1343,9.5,71662.0,-7.71,-28.79,-28.85,0,*67
1487937988.8,1344,9.5,71644.5,-7.69,-29.35,-29.61,0,*6B
1487937990.03,1345,9.5,71592.8,-7.69,-29.83,-29.95,0,*6C
1487937991.3,1346,9.5,71566.8,-7.69,-29.17,-29.29,0,*65
1487937992.56,1347,9.5,71598.8,-7.69,-29.35,-29.61,0,*68
1487937993.8,1348,9.5,71610.0,-7.67,-29.51,-29.67,0,*6D
1487937995.02,1349,9.5,71686.8,-7.67,-28.97,-29.13,0,*64
1487937996.28,1350,9.5,71690.3,-7.65,-28.91,-28.85,0,*66
1487937997.56,1351,9.5,71658.5,-7.65,-29.89,-30.01,0,*6A
1487937998.79,1352,9.5,71634.0,-7.65,-30.27,-30.45,0,*65
1487938000.02,1353,9.5,71658.3,-7.65,-30.45,-30.67,0,*60
1487938001.3,1354,9.5,71646.8,-7.65,-30.61,-30.77,0,*60
1487938002.5,1355,9.5,71582.8,-7.67,-29.95,-29.79,0,*66
1487938003.74,1356,9.5,71594.5,-7.67,-29.51,-29.61,0,*64
1487938004.97,1357,9.5,71620.8,-7.61,-29.45,-29.61,0,*66
1487938006.22,1358,9.5,71616.0,-7.61,-29.57,-29.73,0,*69
1487938007.47,1359,9.5,71654.3,-7.65,-29.23,-29.39,0,*61
1487938008.71,1360,9.5,71630.8,-7.61,-29.07,-29.13,0,*61
1487938009.93,1361,9.5,71598.8,-7.61,-30.33,-30.45,0,*64
1487938011.19,1362,9.5,71590.8,-7.61,-30.61,-30.67,0,*60
1487938012.44,1363,9.5,71594.8,-7.61,-29.89,-29.95,0,*6A
1487938013.67,1364,9.5,71600.0,-7.59,-29.73,-29.83,0,*64
1487938014.9,1365,9.5,71616.3,-7.61,-30.45,-30.67,0,*61
1487938016.13,1366,9.5,71626.0,-7.61,-30.33,-30.33,0,*62
1487938017.38,1367,9.5,71646.8,-7.61,-29.79,-29.89,0,*6C
1487938018.66,1368,9.5,71606.8,-7.65,-30.01,-30.17,0,*6F
1487938019.89,1369,9.5,71580.5,-7.61,-30.45,-30.67,0,*6D
1487938021.11,1370,9.5,71644.5,-7.61,-29.79,-29.95,0,*67
1487938022.34,1371,9.5,71708.5,-7.61,-29.45,-29.57,0,*67
1487938023.55,1372,9.5,71680.8,-7.59,-30.83,-31.01,0,*67
1487938024.82,1373,9.5,71676.5,-7.61,-31.51,-31.73,0,*66
1487938026.07,1374,9.5,71610.5,-7.65,-31.05,-31.23,0,*61
1487938027.3,1375,9.5,71570.0,-7.67,-30.61,-30.67,0,*60
1487938028.52,1376,9.5,71494.8,-7.61,-29.23,-29.23,0,*63
1487938029.77,1377,9.5,71474.5,-7.65,-29.23,-29.29,0,*6C
1487938031.03,1378,9.5,71530.8,-7.65,-29.39,-29.57,0,*61
1487938032.28,1379,9.5,71602.8,-7.61,-29.39,-29.61,0,*61
1487938033.53,1380,9.5,71636.3,-7.61,-29.39,-29.79,0,*6E
1487938034.81,1381,9.5,71658.3,-7.61,-29.73,-30.17,0,*61
1487938036.04,1382,9.5,71630.8,-7.59,-30.73,-31.17,0,*60
1487938037.27,1383,9.5,71552.8,-7.59,-30.23,-30.39,0,*69
1487938038.52,1384,9.5,71536.3,-7.61,-29.45,-29.73,0,*6B
1487938039.77,1385,9.5,71554.5,-7.61,-29.79,-30.01,0,*68
1487938041.02,1386,9.5,71566.3,-7.59,-30.05,-30.39,0,*68
1487938042.26,1387,9.5,71564.0,-7.59,-30.95,-31.45,0,*6A
1487938043.48,1388,9.5,71558.8,-7.61,-31.67,-32.01,0,*61
1487938044.76,1389,9.5,71560.0,-7.61,-31.85,-32.19,0,*65
1487938046.01,1390,9.5,71530.0,-7.65,-32.57,-32.79,0,*63
1487938047.24,1391,9.5,71566.0,-7.65,-33.15,-33.37,0,*6E
1487938048.47,1392,9.5,71564.0,-7.67,-32.79,-33.03,0,*63
1487938049.73,1393,9.5,71494.5,-7.71,-31.95,-32.19,0,*6E
1487938050.99,1394,9.5,71442.0,-7.71,-30.95,-31.11,0,*63
1487938052.21,1395,9.5,71452.0,-7.71,-30.45,-30.55,0,*6E
1487938053.46,1396,9.5,71470.3,-7.71,-30.77,-30.95,0,*60
1487938054.68,1397,9.5,71442.3,-7.71,-30.61,-31.05,0,*6E
1487938055.94,1398,9.5,71470.5,-7.69,-29.95,-30.17,0,*69
1487938057.17,1399,9.5,71456.0,-7.71,-29.67,-30.01,0,*6B
1487938058.42,1400,9.5,71462.3,-7.69,-29.79,-30.05,0,*6E
1487938059.66,1401,9.5,71476.0,-7.69,-29.67,-29.95,0,*61
1487938060.91,1402,9.5,71596.8,-7.69,-30.73,-31.05,0,*6F
1487938062.19,1403,9.5,71552.0,-7.69,-31.39,-31.61,0,*63
1487938063.44,1404,9.5,71580.0,-7.69,-31.91,-32.35,0,*64
1487938064.67,1405,9.5,71612.8,-7.71,-32.57,-32.85,0,*6E
1487938065.9,1406,9.5,71580.8,-7.73,-32.35,-32.69,0,*69
1487938067.12,1407,9.5,71592.5,-7.73,-31.05,-31.33,0,*64
1487938068.32,1408,9.5,71532.5,-7.75,-31.29,-31.67,0,*62
1487938069.55,1409,9.5,71542.3,-7.73,-31.29,-31.67,0,*65
1487938070.8,1410,9.5,71490.0,-7.75,-31.57,-31.85,0,*6E
1487938072.06,1411,9.5,71516.3,-7.75,-31.91,-32.19,0,*63
1487938073.35,1412,9.5,71520.3,-7.77,-31.73,-32.07,0,*61
1487938074.6,1413,9.5,71584.8,-7.77,-32.39,-32.63,0,*6F
1487938075.85,1414,9.5,71582.0,-7.77,-31.67,-31.85,0,*6B
1487938077.1,1415,9.56,71602.5,-7.77,-31.01,-31.11,0,*67
1487938078.36,1416,9.5,71640.5,-7.77,-32.01,-32.19,0,*6C
1487938079.62,1417,9.5,71642.0,-7.79,-31.23,-31.23,0,*6A
1487938080.89,1418,9.5,71650.5,-7.79,-31.23,-31.23,0,*65
1487938082.12,1419,9.5,71640.3,-7.79,-31.17,-31.23,0,*63
1487938083.38,1420,9.56,71612.0,-7.79,-30.73,-30.73,0,*6E
1487938084.66,1421,9.5,71614.3,-7.77,-31.51,-31.57,0,*67
1487938085.89,1422,9.56,71596.5,-7.79,-32.07,-32.13,0,*69
1487938087.14,1423,9.5,71586.0,-7.79,-31.57,-31.57,0,*6D
1487938088.35,1424,9.5,71574.3,-7.79,-31.29,-31.29,0,*6A
1487938089.56,1425,9.5,71586.3,-7.79,-32.39,-32.51,0,*65
1487938090.82,1426,9.5,71548.0,-7.81,-31.79,-31.91,0,*69
1487938092.07,1427,9.5,71536.5,-7.83,-32.69,-32.75,0,*61
1487938093.32,1428,9.5,71554.8,-7.81,-31.91,-31.79,0,*67
1487938094.53,1429,9.5,71584.5,-7.83,-31.05,-31.05,0,*62
1487938095.77,1430,9.5,71576.5,-7.83,-31.29,-31.23,0,*60
1487938097.01,1431,9.5,71610.5,-7.83,-31.79,-31.85,0,*68
1487938098.24,1432,9.56,71618.3,-7.83,-31.85,-31.79,0,*6B
1487938099.46,1433,9.56,71628.8,-7.83,-32.01,-32.01,0,*69
1487938100.67,1434,9.56,71646.8,-7.83,-33.03,-33.03,0,*6E
1487938101.87,1435,9.56,71574.8,-7.89,-33.15,-33.15,0,*65
1487938103.12,1436,9.5,71572.8,-7.89,-31.91,-31.73,0,*6A
1487938104.35,1437,9.56,71552.5,-7.89,-30.67,-30.61,0,*61
1487938105.61,1438,9.56,71592.8,-7.85,-30.23,-30.01,0,*64
1487938106.87,1439,9.56,71626.0,-7.85,-30.01,-29.83,0,*67
1487938108.12,1440,9.5,71610.5,-7.81,-30.51,-30.23,0,*6A
1487938109.35,1441,9.5,71612.3,-7.83,-30.55,-30.27,0,*69
1487938110.6,1442,9.5,71618.3,-7.83,-30.01,-29.73,0,*62
1487938111.84,1443,9.56,71614.0,-7.81,-29.67,-29.45,0,*6C
1487938113.1,1444,9.56,71612.3,-7.81,-30.17,-29.83,0,*6E
1487938114.38,1445,9.5,71614.8,-7.77,-30.05,-29.89,0,*6F
1487938115.63,1446,9.56,71616.0,-7.77,-30.05,-29.79,0,*63
1487938116.83,1447,9.56,71626.3,-7.79,-30.11,-29.67,0,*66
1487938118.07,1448,9.5,71620.3,-7.75,-30.27,-29.89,0,*60
1487938119.3,1449,9.5,71604.5,-7.75,-29.67,-29.35,0,*6A